Location: Beugnon
(47.6222°N, 3.7850°E)
Time: 10:20:50
(UTC+00:00)

Cosmos 2360 Rocket - Visible Passes

Search period start: 03 August 2020 00:00
Search period end: 13 August 2020 00:00
Orbit: 832 x 847 km, 71.0° (Epoch: 03 August)

Date Brightness Start Highest point End Pass type
(mag) Time Alt. Az. Time Alt. Az. Time Alt. Az.
03 Aug 3.7 01:32:42 10° NW 01:36:19 20° W 01:36:19 20° W visible
03 Aug 4.4 21:48:51 10° N 21:52:26 17° NE 21:56:00 10° ENE visible
03 Aug 2.3 23:31:51 10° NNW 23:37:33 69° ENE 23:38:47 52° ESE visible
04 Aug 3.7 01:16:52 10° NW 01:20:31 21° W 01:20:31 21° W visible
04 Aug 4.4 21:33:12 10° N 21:36:38 16° NE 21:40:04 10° ENE visible
04 Aug 2.4 23:16:09 10° NNW 23:21:49 65° ENE 23:23:02 51° ESE visible
05 Aug 3.6 01:01:02 10° NW 01:04:46 22° W 01:04:46 22° W visible
05 Aug 4.4 21:17:33 10° N 21:20:51 15° NE 21:24:07 10° ENE visible
05 Aug 2.4 23:00:26 10° NNW 23:06:05 61° ENE 23:07:19 49° ESE visible
06 Aug 3.6 00:45:14 10° NW 00:49:04 23° W 00:49:04 23° W visible
06 Aug 4.4 21:01:55 10° N 21:05:03 15° NE 21:08:10 10° ENE visible
06 Aug 2.5 22:44:43 10° NNW 22:50:21 58° ENE 22:51:39 47° ESE visible
07 Aug 3.6 00:29:25 10° NW 00:33:24 25° W 00:33:24 25° W visible
07 Aug 4.4 20:46:17 10° N 20:49:15 14° NE 20:52:13 10° ENE visible
07 Aug 2.6 22:29:01 10° NNW 22:34:37 55° ENE 22:36:01 44° ESE visible
08 Aug 3.5 00:13:36 10° NW 00:17:46 26° W 00:17:46 26° W visible
08 Aug 4.4 20:30:40 10° N 20:33:28 14° NNE 20:36:15 10° ENE visible
08 Aug 2.6 22:13:19 10° NNW 22:18:53 52° ENE 22:20:25 41° ESE visible
08 Aug 3.4 23:57:49 10° NW 00:02:10 28° W 00:02:10 28° W visible
09 Aug 4.4 20:15:03 10° N 20:17:40 13° NNE 20:20:16 10° ENE visible
09 Aug 2.7 21:57:36 10° NNW 22:03:09 49° ENE 22:04:51 37° ESE visible
09 Aug 3.3 23:42:01 10° NW 23:46:36 30° W 23:46:36 30° W visible
10 Aug 4.4 19:59:27 10° N 20:01:52 13° NNE 20:04:16 10° ENE visible
10 Aug 2.8 21:41:54 10° NNW 21:47:23 47° NE 21:49:19 34° ESE visible
10 Aug 3.3 23:26:15 10° NW 23:31:04 32° WSW 23:31:04 32° WSW visible
11 Aug 4.4 19:43:51 10° N 19:46:03 12° NNE 19:48:15 10° NE visible
11 Aug 2.8 21:26:12 10° NNW 21:31:39 44° NE 21:33:48 31° ESE visible
11 Aug 3.2 23:10:28 10° NW 23:15:31 34° WSW 23:15:34 34° WSW visible
12 Aug 2.9 21:10:30 10° NNW 21:15:55 42° NE 21:18:20 28° ESE visible
12 Aug 3.1 22:54:42 10° NW 22:59:50 36° WSW 23:00:05 36° WSW visible
